This demonstration page uses our WeatherBlox Daily Observations layout. Learn more.

Left ArrowRight Arrow

Hourly Observations for January 23, 2017

Temp ( °F °C ) Dew Point ( °F °C ) Humidity (%) Winds ( mph kmh ) Pressure ( in mb ) Visibility ( mi km ) Precip ( " mm )
12:52 am 00:52 Cloudy 38 3.3 35 1.7 89 89 NW 13 20 29.86 1011 9 14 0.00 0.00
1:52 am 01:52 Cloudy 38 3.3 35 1.7 89 89 NNW 14 22 29.85 1011 8 13 0.00 0.00
2:52 am 02:52 Cloudy with Mist and Fog 38 3.3 36 2.2 93 93 NW 12 19 29.88 1012 6 10 0.00 0.00
3:52 am 03:52 Cloudy with Mist and Fog 38 3.3 35 1.7 89 89 NW 10 17 29.86 1011 6 10 0.00 0.00
4:52 am 04:52 Cloudy 38 3.3 35 1.7 89 89 NNW 14 22 29.86 1011 7 11 0.00 0.00
5:52 am 05:52 Cloudy 37 2.8 35 1.7 93 93 NNW 12 19 29.86 1011 7 11 0.00 0.00
6:52 am 06:52 Cloudy 37 2.8 35 1.7 93 93 NW 7 11 29.88 1012 7 11 0.00 0.00
7:52 am 07:52 Cloudy with Mist and Fog 37 2.8 34 1.1 89 89 NW 12 19 29.89 1012 6 10 0.00 0.00
8:52 am 08:52 Cloudy with Mist and Fog 37 2.8 35 1.7 93 93 NW 7 11 29.91 1013 6 10 0.00 0.00
9:52 am 09:52 Cloudy with Mist and Fog 38 3.3 35 1.7 89 89 NW 6 9 29.91 1013 5 8 0.00 0.00
10:52 am 10:52 Cloudy 40 4.4 36 2.2 86 86 NW 5 7 29.92 1013 8 13 0.00 0.00
11:52 am 11:52 Cloudy 43 6.1 36 2.2 76 76 N 5 7 29.89 1012 10 16 0.00 0.00
12:52 pm 12:52 Mostly Cloudy 45 7.2 37 2.8 74 74 W 7 11 29.88 1012 10 16 0.00 0.00
1:06 pm 13:06 Partly Cloudy 45 7.2 36 2.2 71 71 VRB 5 7 29.88 1012 10 16 0.00 0.00
1:52 pm 13:52 Sunny 47 8.3 35 1.7 63 63 WNW 6 9 29.85 1011 10 16 0.00 0.00
2:52 pm 14:52 Sunny 50 10 32 0 50 50 NNW 6 9 29.84 1010 10 16 0.00 0.00
3:52 pm 15:52 Sunny 50 10 30 -1 47 47 Calm 29.83 1010 10 16 0.00 0.00
4:52 pm 16:52 Sunny 49 9.4 30 -1.1 48 48 NNE 5 7 29.84 1010 10 16 0.00 0.00
5:52 pm 17:52 Clear 44 6.7 30 -1.1 58 58 NNE 3 6 29.84 1010 10 16 0.00 0.00
6:52 pm 18:52 Clear 41 5 31 -0.6 67 67 ENE 10 17 29.84 1010 10 16 0.00 0.00
7:52 pm 19:52 Clear 36 2.2 30 -1.1 79 79 E 5 7 29.84 1011 10 16 0.00 0.00
8:52 pm 20:52 Clear 35 1.7 29 -1.7 78 78 SE 3 6 29.85 1011 10 16 0.00 0.00
9:52 pm 21:52 Clear 35 1.7 30 -1.1 82 82 SE 5 7 29.83 1010 10 16 0.00 0.00
10:52 pm 22:52 Clear 35 1.7 30 -1.1 82 82 SE 6 9 29.84 1011 10 16 0.00 0.00
11:52 pm 23:52 Clear 35 1.7 30 -1.1 82 82 SE 7 11 29.83 1010 10 16 0.00 0.00

Powered by AerisWeather